Location: Unspecified
(48.8582°N, 2.2947°E)
Time: 22:33:42
(UTC+02:00)

ISS - Pass Details

Date: 30 March 2019
Orbit: 408 x 410 km, 51.6° (Epoch: 24 April)

Event Time Altitude Azimuth Distance (km) Brightness Sun altitude
Rises 22:25:28 0° 290° (WNW) 2,339 1.0 -28.0°
Reaches altitude 10° 22:27:34 10° 288° (WNW) 1,476 -0.3 -28.2°
Enters shadow 22:28:13 15° 286° (WNW) 1,217 -0.8 -28.3°
